Terminal Aerodrome Forecast
Issued by NWS Houston/Galveston TX

Home | Current Version | Previous Version | Text Only | Print | Product List | Glossary On
Versions: 1 2 3 4 5 6 7 8 9 10 11 12 13 14 15 16 17 18 19 20 21 22 23 24 25 26
000
FTUS44 KHGX 191138
TAFHOU
TAF
KHOU 191138Z 1912/2012 02003KT P6SM SCT250
     FM191500 11006KT P6SM SCT250
     FM192100 14010KT P6SM FEW045 BKN250
     FM200400 16005KT P6SM MIFG BKN250=

USA.gov is the U.S. government's official web portal to all federal, state and local government web resources and services.